Flag for U.S.A. Weather past 2 weeks in Little Rock, Arkansas, U.S.A.

Now
61 °F

Passing clouds.


Feels Like: 61 °F
Forecast: 52 / 71 °F
Wind: 5 mph from Southeast

Location: Adams Field


UV Index: 5 (Moderate)

Visibility: 10 mi


Pressure: 30.22 "Hg

Humidity: 58%

Dew point: 46 °F

Location of Little RockLocation

Historic Weather in Little Rock

°F

Little Rock temperature yesterday

Maximum temperature yesterday: 60 °F (at 3:53 PM)
Minimum temperature yesterday: 38 °F (at 5:53 AM)
Average temperature yesterday: 50 °F

Past Weeks' High & Low Weather Summary

 TemperatureHumidityPressure
High84 °F (Apr 10, 2:53 PM)100% (Apr 14, 4:01 AM)30.31 "Hg (Apr 14, 4:01 AM)
Low35 °F (Apr 15, 5:53 AM)19% (Apr 9, 4:53 PM)29.63 "Hg (Apr 7, 2:53 AM)
Average58 °F61%30.00 "Hg
* Reported Apr 2 8:53 PM — Apr 17 8:53 PM, Little Rock, Weather by CustomWeather, © 2014

Note: Actual official high and low records may vary slightly from our data, if they occured in-between our weather recording intervals... More about our weather records

Advertising

Historic Weather Conditions — Data for Previous 24 hours

 ConditionsComfort  
Time TempWeatherWind HumidityBarometerVisibility
8:53 PM
Apr 17
62 °FPassing clouds.6 mph56%30.21 "Hg10 mi
7:53 PM63 °FMostly cloudy.5 mph50%30.20 "Hg10 mi
6:53 PM65 °FBroken clouds.9 mph45%30.19 "Hg10 mi
5:53 PM68 °FBroken clouds.10 mph35%30.19 "Hg10 mi
4:53 PM68 °FBroken clouds.3 mph32%30.19 "Hg10 mi
3:53 PM69 °FBroken clouds.7 mph26%30.19 "Hg10 mi
2:53 PM69 °FBroken clouds.12 mph32%30.21 "Hg10 mi
1:53 PM68 °FPartly sunny.10 mph31%30.22 "Hg10 mi
12:53 PM67 °FPartly sunny.8 mph32%30.23 "Hg10 mi
11:53 AM66 °FScattered clouds.8 mph36%30.25 "Hg10 mi
10:53 AM62 °FScattered clouds.6 mph41%30.27 "Hg10 mi
9:53 AM59 °FPassing clouds.5 mph48%30.27 "Hg10 mi
8:53 AM53 °FPassing clouds.No wind66%30.27 "Hg10 mi
7:53 AM46 °FPassing clouds.No wind86%30.25 "Hg7 mi
6:53 AM41 °FPassing clouds.No wind89%30.23 "Hg10 mi
5:53 AM42 °FClear.No wind85%30.20 "Hg10 mi
4:53 AM41 °FPassing clouds.No wind82%30.19 "Hg10 mi
3:53 AM43 °FClear.No wind82%30.18 "Hg10 mi
2:53 AM45 °FPassing clouds.No wind76%30.19 "Hg10 mi
1:53 AM44 °FPassing clouds.No wind71%30.19 "Hg10 mi
12:53 AM48 °FPassing clouds.5 mph66%30.18 "Hg10 mi
11:53 PM
Apr 16
48 °FPassing clouds.6 mph66%30.17 "Hg10 mi
10:53 PM49 °FPassing clouds.6 mph64%30.15 "Hg10 mi
Weather by CustomWeather, © 2014

See weather overview